User: anonymous   Login
Location: Unspecified
(0.0000°N, 0.0000°E)
Time: 12:14:49
(UTC+00:00)
Language:

Snapshot - Orbit

View from above orbital plane
View from above orbital plane
View from above satellite
View from above satellite

Ground track
Ground track

The orbit data is extracted from the following two-line orbital elements,

1 01314U 65027A   14293.82150851 -.00000242  00000-0 -92809-3 0  7087
2 01314 090.2931 258.0605 0029280 227.1996 191.6987 12.91738428 81788
Epoch (UTC): 20 October 2014 19:42:58
Eccentricity: 0.0029280
inclination: 90.2931°
perigee height: 1272 km
apogee height: 1317 km
right ascension of ascending node: 258.0605°
argument of perigee: 227.1996°
revolutions per day: 12.91738428
mean anomaly at epoch: 191.6987°
orbit number at epoch: 8178

The dashed part of the orbit path shows where the satellite is in the earth's shadow,  

DLR